SCOUT X-4 DEB, 976

Orbit data source: Space-Track

SCOUT X-4 DEB, 976 is space debris in LEO originally from a launch on Sat, 10 Oct 1964 UTC launched from the Air Force Western Test Range (AFWTR). Debris objects in space refer to the collection of defunct objects orbiting the Earth. Examples of debris include non-operational satellites, rocket bodies, and fragments generated from explosions, collisions, or faulty payload assembly.

Loading next visibility...
Identifier
976, 1964-064C
Orbit
LEO
Country
Flag of USUS
Related business
Manufacturer
APL
Mission
Spacecraft
Bus & Motor
Unknown
Mass
Unknown
Launch date (UTC)
1964-10-10 (62 years ago)
Launch vehicle
Unknown
Launch site
Air Force Western Test Range (AFWTR)
Object type
Payload
Rocket body
Debris
Shape & HBR
Unknown shape, 0.1 m
Radar Cross Section
Small (<0.1 m²)

Expand to show TLE details & history
Last TLE update: 3 days ago

TLE from 3 days ago
0 SCOUT X-4 DEB
1 00976U 64064C   26108.21698624  .00000329  00000-0  17931-3 0  9995
2 00976  79.3173  29.2507 0112437 196.1290 163.6285 14.08063406134534
Epoch: 2026-04-18T05:12Z
TLE epoch observation values (Epoch: 2026-04-18T05:12:27.611Z)
Latitude
0.00004°
Longitude
104.79666°
Altitude
947.07 km
Speed
7.338 km/s
True Right ascension
01h 57m 00s
True Declination
0° 00' 00"
Sunlit
Object was in daylight at epoch
Visualization orbit readout
Latitude
Unknown
Longitude
Unknown
Altitude
Unknown
Speed
Unknown
Apparent Right ascension
Unknown
Apparent Declination
Unknown
Sunlit
N/A
Visualization observer readout
Local Sidereal Time
01:54:22
Azimuth
Unknown
Elevation
Unknown
Doppler factor
Unknown
Orbital elements
Apogee altitude
944.705 km
Perigee altitude
781.864 km
Semi-major axis
7,241.422 km
Eccentricity
0.01124
Inclination
79.3173°
RAAN
29.2507°
Arg. of periapsis
196.129°
True anomaly
163.98683°
Mean anomaly
163.6285°
Eccentric anomaly
163.80814°
Mean motion
3.52215 °/min
Orbital period
102.21 mins
BSTAR
0.00017931
Loading maneuver chart data...
Computing Atmospheric mass density...
Loading historical data...
Loading historical data...
Loading historical data...
Loading historical data...
Loading historical data...
Loading historical data...
Loading historical data...
Other satellites on launch #64 in the year 1964 (1964-10-10 UTC)

Documentation

Showing up to 5 results
|